Weather History for Pasco, WA

Change the Weather History Date:

Friday, March 28, 2014

  Actual Average Record
Temperature  
Mean Temperature 47 °F 50 °F  
Max Temperature 55 °F 63 °F 77 °F (1994)
Min Temperature 39 °F 37 °F 24 °F (1998)
Degree Days  
Heating Degree Days 18 15  
Month to date heating degree days 516 534  
Since 1 July heating degree days 4745 4417  
Cooling Degree Days 0 0  
Month to date cooling degree days 0 0  
Year to date cooling degree days 0 0  
Moisture  
Dew Point 44 °F    
Average Humidity 79    
Maximum Humidity 93    
Minimum Humidity 65    
Precipitation  
Precipitation 0.31 in 0.02 in 0.31 in (2014)
Month to date precipitation 0.76 0.71  
Year to date precipitation 1.74 2.79  
Snow  
Snow 0.00 in - - ()
Snow Depth 0.00 in    
Sea Level Pressure  
Sea Level Pressure 29.86 in    
Wind  
Wind Speed 7 mph (SSE)    
Max Wind Speed 15 mph    
Max Gust Speed 19 mph    
Visibility 10 miles    
Events Rain    
T = Trace of Precipitation, MM = Missing Value Source: NWS Daily Summary

Daily Weather History Graph

Daily Weather History Graph

Search for Another Location

Airport:

Trip Planner

Search our weather history database for the weather conditions in past years. The results will help you decide how hot, cold, wet, or windy it might be!

Date:

Astronomy

Mar. 28, 2014 Rise Set
Actual Time 6:43 AM PDT 7:20 PM PDT
Civil Twilight 6:13 AM PDT 7:50 PM PDT
Nautical Twilight 5:37 AM PDT 8:26 PM PDT
Astronomical Twilight 5:00 AM PDT 9:03 PM PDT
Moon 5:25 AM PDT (3/28) 5:16 PM PDT (3/28)
Length of Visible Light 13h 36m
Length of Day
12h 36m
Waning Crescent, 5% of the Moon is Illuminated
Mar 28
Waning Crescent
Mar 30
New
Apr 7
First Quarter
Apr 15
Full
Apr 22
Last Quarter

Hourly Weather History & Observations

Time (PDT) Temp. Windchill Dew Point Humidity Pressure Visibility Wind Dir Wind Speed Gust Speed Precip Events Conditions
12:53 AM 46.0 °F 41.9 °F 36.0 °F 68% 29.93 in 10.0 mi WSW 8.1 mph - N/A   Clear
1:53 AM 45.0 °F 39.7 °F 37.0 °F 74% 29.93 in 10.0 mi SW 10.4 mph - N/A   Clear
2:53 AM 45.0 °F 40.1 °F 37.0 °F 74% 29.93 in 10.0 mi SW 9.2 mph - N/A   Clear
3:53 AM 42.1 °F 40.2 °F 36.0 °F 79% 29.93 in 10.0 mi South 3.5 mph - N/A   Clear
4:53 AM 45.0 °F 42.6 °F 37.0 °F 74% 29.92 in 10.0 mi South 4.6 mph - N/A   Mostly Cloudy
5:53 AM 41.0 °F 39.0 °F 36.0 °F 82% 29.92 in 10.0 mi East 3.5 mph - N/A   Clear
6:53 AM 43.0 °F 38.8 °F 37.0 °F 80% 29.91 in 10.0 mi SSE 6.9 mph - N/A   Scattered Clouds
7:53 AM 44.1 °F - 39.0 °F 82% 29.91 in 10.0 mi Calm Calm - 0.00 in Rain Light Rain
8:53 AM 46.0 °F 42.5 °F 42.1 °F 86% 29.90 in 10.0 mi ESE 6.9 mph - 0.01 in Rain Light Rain
9:53 AM 46.9 °F - 43.0 °F 86% 29.91 in 10.0 mi ESE 6.9 mph - 0.01 in Rain Light Rain
10:53 AM 48.0 °F - 45.0 °F 89% 29.90 in 8.0 mi ESE 6.9 mph - 0.03 in Rain Light Rain
11:53 AM 50.0 °F - 48.0 °F 93% 29.90 in 10.0 mi SE 6.9 mph - 0.06 in Rain Light Rain
12:53 PM 51.1 °F - 48.0 °F 89% 29.88 in 7.0 mi SE 8.1 mph - 0.07 in Rain Light Rain
1:53 PM 51.1 °F - 48.0 °F 89% 29.86 in 7.0 mi ESE 9.2 mph - 0.04 in Rain Rain
2:53 PM 52.0 °F - 48.9 °F 89% 29.82 in 10.0 mi SE 10.4 mph - 0.05 in Rain Light Rain
3:53 PM 55.0 °F - 48.9 °F 80% 29.80 in 10.0 mi SE 13.8 mph - 0.00 in   Mostly Cloudy
4:53 PM 55.0 °F - 48.9 °F 80% 29.79 in 10.0 mi ESE 5.8 mph - 0.00 in Rain Light Rain
5:53 PM 54.0 °F - 51.1 °F 90% 29.79 in 7.0 mi NNW 3.5 mph - 0.03 in Rain Light Rain
6:53 PM 54.0 °F - 51.1 °F 90% 29.77 in 10.0 mi SE 8.1 mph - 0.00 in   Mostly Cloudy
7:53 PM 53.1 °F - 50.0 °F 89% 29.78 in 10.0 mi WSW 3.5 mph - N/A   Overcast
8:53 PM 54.0 °F - 50.0 °F 86% 29.79 in 10.0 mi SSW 8.1 mph - 0.01 in Rain Light Rain
9:53 PM 53.1 °F - 48.9 °F 86% 29.79 in 10.0 mi South 10.4 mph - 0.00 in Rain Light Rain
10:53 PM 51.1 °F - 48.0 °F 89% 29.79 in 10.0 mi SSE 9.2 mph - 0.00 in   Overcast
11:53 PM 50.0 °F - 46.9 °F 89% 29.77 in 10.0 mi SE 8.1 mph - N/A   Scattered Clouds